Weather History for Bad Axe, MI

Change the Weather History Date:

Monday, April 22, 2013

  Actual Average (KP58) Record (KP58)
Temperature  
Mean Temperature 44 °F -  
Max Temperature 57 °F 50 °F 81 °F (2007)
Min Temperature 32 °F 35 °F 30 °F (2002)
Degree Days  
Heating Degree Days 20    
Moisture  
Dew Point 33 °F    
Average Humidity 65    
Maximum Humidity 89    
Minimum Humidity 39    
Precipitation  
Precipitation 0.00 in - - ()
Sea Level Pressure  
Sea Level Pressure 30.34 in    
Wind  
Wind Speed 6 mph (SE)    
Max Wind Speed 13 mph    
Max Gust Speed 18 mph    
Visibility 10 miles    
Events      
Averages and records for this station are not official NWS values.
T = Trace of Precipitation, MM = Missing Value Source: NWS Daily Summary

Daily Weather History Graph

Daily Weather History Graph

Search for Another Location

Airport:

Trip Planner

Search our weather history database for the weather conditions in past years. The results will help you decide how hot, cold, wet, or windy it might be!

Date:

Astronomy

Apr. 22, 2013 Rise Set
Actual Time 6:37 AM EDT 8:24 PM EDT
Civil Twilight 6:06 AM EDT 8:55 PM EDT
Nautical Twilight 5:29 AM EDT 9:32 PM EDT
Astronomical Twilight 4:49 AM EDT 10:12 PM EDT
Moon 5:06 PM EDT (4/22) 4:37 AM EDT (4/22)
Length of Visible Light 14h 48m
Length of Day
13h 47m
Waxing Gibbous, 87% of the Moon is Illuminated
Apr 22
Waxing Gibbous
Apr 25
Full
May 2
Last Quarter
May 9
New
May 18
First Quarter

Hourly Weather History & Observations

Time (EDT) Temp. Windchill Dew Point Humidity Pressure Visibility Wind Dir Wind Speed Gust Speed Precip Events Conditions
12:13 AM 35.1 °F 32.2 °F 30.7 °F 84% 30.48 in 10.0 mi SE 3.5 mph - N/A   Clear
12:33 AM 35.1 °F 31.0 °F 30.9 °F 85% 30.47 in 10.0 mi SSE 4.6 mph - N/A   Clear
12:53 AM 34.3 °F 30.2 °F 30.9 °F 87% 30.47 in 10.0 mi SSE 4.6 mph - N/A   Clear
1:13 AM 34.7 °F 30.6 °F 30.7 °F 85% 30.47 in 10.0 mi SSE 4.6 mph - N/A   Clear
1:33 AM 34.7 °F 29.6 °F 30.6 °F 85% 30.46 in 10.0 mi SSE 5.8 mph - N/A   Clear
1:52 AM 34.7 °F 29.6 °F 30.0 °F 83% 30.45 in 10.0 mi SSE 5.8 mph - N/A   Clear
2:13 AM 34.7 °F 29.6 °F 29.3 °F 81% 30.45 in 10.0 mi SSE 5.8 mph - N/A   Clear
2:33 AM 34.2 °F 30.0 °F 28.9 °F 81% 30.44 in 10.0 mi SSE 4.6 mph - N/A   Clear
2:53 AM 33.8 °F 29.6 °F 28.6 °F 81% 30.44 in 10.0 mi SSE 4.6 mph - N/A   Clear
3:13 AM 34.0 °F 31.0 °F 28.4 °F 80% 30.43 in 10.0 mi SSE 3.5 mph - N/A   Clear
3:33 AM 33.8 °F 28.6 °F 28.2 °F 80% 30.42 in 10.0 mi SE 5.8 mph - N/A   Clear
3:53 AM 33.8 °F 28.6 °F 28.2 °F 80% 30.42 in 10.0 mi SSE 5.8 mph - N/A   Clear
4:13 AM 33.8 °F 28.6 °F 28.4 °F 81% 30.42 in 10.0 mi SSE 5.8 mph - N/A   Clear
4:33 AM 33.8 °F 29.6 °F 28.8 °F 82% 30.42 in 10.0 mi SSE 4.6 mph - N/A   Clear
4:53 AM 33.4 °F 29.1 °F 29.3 °F 85% 30.41 in 10.0 mi SSE 4.6 mph - N/A   Clear
5:13 AM 33.8 °F 29.6 °F 29.8 °F 85% 30.41 in 10.0 mi SSE 4.6 mph - N/A   Clear
5:33 AM 32.9 °F 29.8 °F 29.5 °F 87% 30.41 in 10.0 mi SSE 3.5 mph - N/A   Clear
5:53 AM 33.1 °F 28.7 °F 30.0 °F 89% 30.41 in 10.0 mi SSE 4.6 mph - N/A   Clear
6:13 AM 33.1 °F 27.7 °F 30.2 °F 89% 30.40 in 10.0 mi SE 5.8 mph - N/A   Clear
6:34 AM 33.1 °F 27.7 °F 30.2 °F 89% 30.40 in 10.0 mi SSE 5.8 mph - N/A   Clear
6:53 AM 33.1 °F 27.7 °F 30.2 °F 89% 30.41 in 10.0 mi SSE 5.8 mph - N/A   Clear
7:13 AM 33.1 °F 28.7 °F 30.2 °F 89% 30.41 in 10.0 mi SSE 4.6 mph - N/A   Clear
7:34 AM 33.8 °F 27.7 °F 30.6 °F 88% 30.41 in 10.0 mi SSE 6.9 mph - N/A   Clear
7:53 AM 34.7 °F 29.6 °F 30.9 °F 86% 30.42 in 10.0 mi SSE 5.8 mph - N/A   Clear
8:13 AM 35.8 °F 30.9 °F 31.1 °F 83% 30.42 in 10.0 mi SSE 5.8 mph - N/A   Clear
8:34 AM 37.4 °F 33.8 °F 32.0 °F 81% 30.42 in 10.0 mi SSE 4.6 mph - N/A   Clear
8:53 AM 39.2 °F 34.2 °F 32.0 °F 75% 30.41 in 10.0 mi SSE 6.9 mph - N/A   Clear
9:13 AM 40.8 °F 36.2 °F 32.2 °F 71% 30.41 in 10.0 mi SSE 6.9 mph - N/A   Clear
9:34 AM 42.8 °F 36.6 °F 33.1 °F 69% 30.41 in 10.0 mi SSE 11.5 mph - N/A   Clear
9:53 AM 44.6 °F 41.4 °F 33.3 °F 64% 30.40 in 10.0 mi SSE 5.8 mph - N/A   Clear
10:13 AM 45.9 °F 41.2 °F 34.2 °F 64% 30.40 in 10.0 mi South 9.2 mph - N/A   Clear
10:34 AM 46.6 °F - 34.3 °F 62% 30.40 in 10.0 mi SSE 6.9 mph - N/A   Clear
10:53 AM 48.2 °F - 34.7 °F 60% 30.39 in 10.0 mi SSE 6.9 mph - N/A   Clear
11:13 AM 50.2 °F - 35.6 °F 57% 30.39 in 10.0 mi SSE 8.1 mph - N/A   Clear
11:33 AM 51.3 °F - 33.3 °F 50% 30.39 in 10.0 mi South 12.7 mph - N/A   Clear
11:53 AM 52.2 °F - 34.3 °F 51% 30.39 in 10.0 mi South 8.1 mph - N/A   Clear
12:13 PM 52.7 °F - 31.8 °F 45% 30.38 in 10.0 mi South 11.5 mph - N/A   Clear
12:33 PM 53.8 °F - 32.4 °F 44% 30.37 in 10.0 mi SSE 8.1 mph - N/A   Clear
12:53 PM 54.5 °F - 31.5 °F 42% 30.36 in 10.0 mi South 9.2 mph - N/A   Clear
1:14 PM 55.4 °F - 30.6 °F 39% 30.36 in 10.0 mi South 9.2 mph - N/A   Clear
1:33 PM 55.6 °F - 32.2 °F 41% 30.35 in 10.0 mi SSE 5.8 mph - N/A   Clear
1:53 PM 56.3 °F - 32.9 °F 41% 30.34 in 10.0 mi SSE 6.9 mph 16.1 mph N/A   Clear
2:14 PM 57.0 °F - 33.8 °F 42% 30.33 in 10.0 mi SSE 9.2 mph - N/A   Clear
2:33 PM 56.3 °F - 39.4 °F 53% 30.32 in 10.0 mi ESE 10.4 mph 17.3 mph N/A   Clear
2:53 PM 55.9 °F - 37.8 °F 51% 30.32 in 10.0 mi East 8.1 mph - N/A   Clear
3:14 PM 56.1 °F - 37.4 °F 49% 30.31 in 10.0 mi ESE 10.4 mph - N/A   Clear
3:33 PM 55.9 °F - 36.3 °F 48% 30.30 in 10.0 mi East 9.2 mph - N/A   Clear
3:53 PM 56.3 °F - 37.0 °F 48% 30.29 in 10.0 mi ESE 9.2 mph 17.3 mph N/A   Clear
4:14 PM 57.0 °F - 39.2 °F 51% 30.28 in 10.0 mi ESE 11.5 mph 17.3 mph N/A   Clear
4:33 PM 56.8 °F - 39.2 °F 52% 30.27 in 10.0 mi ESE 8.1 mph - N/A   Clear
4:53 PM 57.0 °F - 38.7 °F 50% 30.27 in 10.0 mi ESE 12.7 mph 18.4 mph N/A   Clear
5:14 PM 56.7 °F - 38.5 °F 51% 30.26 in 10.0 mi ESE 8.1 mph 18.4 mph N/A   Clear
5:33 PM 56.7 °F - 37.9 °F 50% 30.25 in 10.0 mi ESE 9.2 mph 17.3 mph N/A   Clear
5:53 PM 56.5 °F - 37.4 °F 49% 30.25 in 10.0 mi SE 10.4 mph 18.4 mph N/A   Clear
6:14 PM 56.3 °F - 36.9 °F 48% 30.25 in 10.0 mi SE 11.5 mph 18.4 mph N/A   Clear
6:33 PM 56.1 °F - 37.4 °F 49% 30.24 in 10.0 mi SE 11.5 mph 16.1 mph N/A   Clear
6:53 PM 55.8 °F - 36.3 °F 48% 30.23 in 10.0 mi SE 9.2 mph - N/A   Clear
7:14 PM 54.9 °F - 35.1 °F 47% 30.23 in 10.0 mi SE 11.5 mph 17.3 mph N/A   Clear
7:33 PM 53.8 °F - 35.4 °F 50% 30.22 in 10.0 mi SE 8.1 mph - N/A   Clear
7:54 PM 52.7 °F - 35.1 °F 51% 30.22 in 10.0 mi SE 6.9 mph - N/A   Clear
8:14 PM 51.4 °F - 35.6 °F 55% 30.22 in 10.0 mi ESE 4.6 mph - N/A   Clear
8:33 PM 50.0 °F - 35.6 °F 58% 30.22 in 10.0 mi SE 5.8 mph - N/A   Clear
8:54 PM 48.9 °F - 35.1 °F 59% 30.22 in 10.0 mi SE 4.6 mph - N/A   Clear
9:14 PM 48.4 °F - 34.7 °F 59% 30.23 in 10.0 mi ESE 3.5 mph - N/A   Clear
9:33 PM 47.1 °F - 34.9 °F 62% 30.22 in 10.0 mi SE 4.6 mph - N/A   Clear
9:54 PM 46.9 °F - 34.7 °F 62% 30.22 in 10.0 mi SE 4.6 mph - N/A   Clear
10:13 PM 46.4 °F 45.2 °F 34.0 °F 62% 30.22 in 10.0 mi SE 3.5 mph - N/A   Clear
10:33 PM 45.5 °F 44.2 °F 34.5 °F 65% 30.22 in 10.0 mi SE 3.5 mph - N/A   Clear
10:54 PM 45.9 °F 43.6 °F 33.8 °F 63% 30.22 in 10.0 mi SE 4.6 mph - N/A   Clear
11:13 PM 47.3 °F - 34.2 °F 60% 30.22 in 10.0 mi SSE 6.9 mph - N/A   Clear
11:33 PM 47.3 °F - 34.7 °F 62% 30.22 in 10.0 mi SSE 5.8 mph - N/A   Clear
11:53 PM 47.3 °F - 35.2 °F 63% 30.21 in 10.0 mi SSE 5.8 mph - N/A   Clear